Location: Veyrier
(46.1830°N, 6.2000°E)
Time: 18:33:25
(UTC+02:00)

Daily predictions for brighter satellites

Satellite Brightness Start Highest point End
(mag) Time Altitude Azimuth Time Altitude Azimuth Time Altitude Azimuth
Cosmos 1151 Rocket 4.4 20:59:54 10° SE 21:02:56 19° E 21:05:58 10° NE
Cosmos 2333 Rocket 2.8 20:59:54 10° S 21:04:58 35° ESE 21:10:04 10° NE
NOSS 7 (H) 4.3 21:03:30 10° SW 21:06:59 79° SE 21:10:18 10° NE
COSMOS 2428 2.7 21:04:25 10° SSW 21:10:04 64° ESE 21:15:45 10° NNE
Cosmos 1844 Rocket 2.9 21:06:25 10° NNW 21:12:08 78° WSW 21:17:46 10° SSE
Cosmos 2333 4.2 21:07:08 10° SSW 21:12:44 70° ESE 21:18:20 10° NNE
Cosmos 1844 3.8 21:09:04 10° NNW 21:14:48 87° ENE 21:20:33 10° SSE
Cosmos 1300 4.2 21:11:34 10° SSW 21:15:13 42° WNW 21:18:53 10° N
USA 186 1.0 21:13:47 10° S 21:16:00 75° W 21:18:18 10° NNW
Cosmos 1633 Rocket 3.0 21:13:42 10° N 21:18:03 72° E 21:22:23 10° SSE
Cosmos 2154 Rocket 4.0 21:11:58 10° S 21:18:12 75° E 21:24:26 10° NNE
Cosmos 2219 Rocket 2.2 21:19:05 10° S 21:24:37 59° ESE 21:30:10 10° NNE
Cosmos 2237 Rocket 2.9 21:20:07 10° SSE 21:24:54 30° ESE 21:29:44 10° NE
H-2A R/B 3.2 21:25:20 13° ESE 21:28:53 26° ENE 21:32:56 10° N
Cosmos 2228 Rocket 3.6 21:25:09 10° SSE 21:29:11 37° E 21:33:15 10° NNE
CZ-3B R/B 2.0 21:29:04 10° NW 21:30:39 43° NNE 21:31:21 24° E
Cosmos 1515 Rocket 4.1 21:26:39 10° SSE 21:30:48 39° E 21:34:58 10° NNE
Cosmos 2278 Rocket 2.5 21:25:43 10° NNW 21:31:19 55° ENE 21:36:05 14° SE
ERS-1 Rocket 4.2 21:30:14 14° ESE 21:33:33 26° ENE 21:37:40 10° N
ATLAS 5 CENTAUR R/B 4.5 21:35:01 10° NNW 21:38:13 15° NNE 21:41:37 10° NE
Cosmos 1455 2.1 21:35:19 10° S 21:39:08 77° E 21:43:00 10° NNE
Cosmos 2341 Rocket 4.0 21:33:16 10° S 21:39:37 75° E 21:45:56 10° NNE
NOAA 11 4.2 21:34:08 10° SSE 21:39:37 78° ENE 21:45:09 10° NNW
USA 234 4.5 21:35:43 10° ENE 21:41:33 36° N 21:47:24 10° NW
Cosmos 1408 2.9 21:38:00 10° N 21:41:33 47° ENE 21:43:59 18° SSE
Cosmos 2251 Rocket 4.5 21:36:30 10° NNW 21:41:40 48° WSW 21:46:47 10° S
ERS-2 4.0 21:39:04 10° SSW 21:42:18 29° W 21:45:35 10° NW
Cosmos 1892 3.6 21:39:14 10° NNW 21:43:02 51° W 21:46:47 10° S
Cosmos 962 Rocket 4.4 21:39:26 10° S 21:45:34 85° E 21:51:46 10° N
Cosmos 2218 Rocket 4.3 21:40:26 10° SSE 21:46:27 48° E 21:52:33 10° NNE
Cosmos 1328 Rocket 3.6 21:46:38 10° S 21:51:04 88° WNW 21:55:32 10° N
Resurs 01 Rocket 2.5 21:47:41 10° S 21:52:00 50° W 21:56:20 10° NNW
SL-08 RB Rocket 4.3 21:52:16 22° ESE 21:54:39 38° ENE 21:58:48 10° N
NOSS 0 Rocket 3.9 21:50:43 10° SSW 21:56:48 65° ESE 22:02:57 10° NNE
Genesis I 3.5 21:54:01 10° NW 21:58:05 65° SW 22:00:36 22° SSE
Cosmos 2056 Rocket 4.3 21:55:03 17° SSE 21:58:27 32° E 22:03:11 10° NE
Cosmos 2366 rocket 4.1 21:53:42 10° SSE 21:59:42 54° E 22:05:48 10° NNE
Cosmos 1470 Rocket 3.6 21:55:32 10° NNW 21:59:56 79° W 22:03:54 13° S
Cosmos 2098 Rocket 3.4 21:57:15 18° SSE 22:00:16 41° E 22:03:55 10° NNE
NOSS 2-1 (C) 4.4 21:58:23 10° WSW 22:01:56 47° NW 22:06:02 10° NNE
NOSS 2-1 (D) 4.4 21:59:23 10° WSW 22:02:55 45° NW 22:07:01 10° NNE
Cosmos 405 Rocket 4.2 22:07:32 20° ENE 22:07:32 20° ENE 22:10:00 10° NE
ATLAS 2AS CENTAUR R/B 3.2 21:59:13 10° NW 22:07:05 65° WSW 22:12:52 17° SSE
ATLAS CENTAUR R/B 1.0 22:05:02 10° SW 22:08:41 87° SE 22:12:34 10° NE
SL-8 Rocket 4.0 22:03:12 10° S 22:09:30 83° E 22:15:49 10° N
Aureole 2 4.4 22:10:46 10° SSW 22:13:46 65° WNW 22:16:43 10° NNE
SL-16 R/B 2.9 22:12:37 27° SE 22:14:06 31° ESE 22:18:59 10° NE
Cosmos 1339 Rocket 4.4 22:08:27 10° N 22:14:32 70° E 22:18:33 23° SSE
Cosmos 1624 Rocket 4.2 22:12:09 19° SSE 22:15:35 45° ESE 22:20:32 10° NNE
Cosmos 1190 Rocket 4.2 22:11:59 10° NNW 22:17:14 58° ENE 22:19:36 31° SE
GEOS 3 Rocket 4.0 22:16:08 10° NE 22:21:12 41° ESE 22:26:09 10° SSW
Cosmos 1943 Rocket 4.3 22:21:30 10° N 22:24:09 13° NE 22:26:48 10° ENE
ARGOS 3.1 22:21:08 23° SSE 22:24:34 87° WSW 22:29:58 10° NNW
Cosmos 1825 2.7 22:21:13 10° NNW 22:24:56 56° W 22:26:59 24° SSW
Cosmos 1140 Rocket 4.3 22:20:13 10° N 22:25:01 36° ENE 22:26:40 29° E
Cosmos 1933 Rocket 4.4 22:24:24 10° NNW 22:28:37 47° W 22:31:52 16° SSW
MetOp-B 4.1 22:26:46 27° SSE 22:29:50 88° WSW 22:35:14 10° NNW
Terra 3.0 22:29:35 24° E 22:30:29 26° ENE 22:34:23 10° N
Cosmos 405 2.8 22:28:22 10° N 22:31:54 78° E 22:32:17 67° SE
Cosmos 2344 4.1 22:29:24 27° SE 22:31:58 33° ESE 22:39:02 10° NE
NOSS 3-4 (A) 3.8 22:30:32 10° NW 22:37:32 79° NE 22:41:12 33° SE
NOSS 3-4 (C) 3.8 22:30:38 10° NW 22:37:37 79° NE 22:41:18 33° SE
OE (NEXTSAT) 4.2 22:35:26 10° W 22:39:00 87° S 22:39:09 81° ESE
Cosmos 1151 Rocket 4.3 22:36:11 10° SW 22:40:11 40° WNW 22:44:14 10° N
Cosmos 1980 4.0 22:35:15 10° SW 22:40:54 69° WNW 22:46:36 10° NNE
Cosmos 864 Rocket 4.5 22:35:31 10° S 22:41:36 80° W 22:47:47 10° N
Lacrosse 5 3.5 22:37:28 10° NW 22:41:52 28° NNE 22:45:13 15° ENE
Cosmos 2297 3.6 22:36:35 10° NNW 22:42:17 78° ENE 22:44:20 41° SE
Cosmos 1869 3.9 22:40:48 20° SSW 22:43:23 57° W 22:47:22 10° N
SPOT 5 2.7 22:42:24 49° SE 22:43:23 63° ENE 22:47:49 10° N
Cosmos 1707 Rocket 3.7 22:45:11 49° E 22:45:11 49° E 22:49:18 10° NNE
DMSP B5D2-2 4.2 22:41:47 10° NNE 22:46:57 54° E 22:48:04 46° SE
Meteor 2-10 Rocket 3.7 22:42:57 18° SSW 22:47:21 85° W 22:53:13 10° N
USA 267 3.4 22:42:32 10° ENE 22:48:49 48° SE 22:55:04 10° SSW
Cosmos 2333 Rocket 3.5 22:43:52 10° SW 22:49:10 40° NW 22:54:31 10° NNE
Cosmos 1869 Rocket 3.4 22:46:26 10° N 22:50:51 87° W 22:51:41 58° S
Cosmos 2369 Rocket 3.7 22:46:34 10° N 22:51:13 25° NE 22:53:06 21° ENE
SL-19 R/B 4.3 22:50:19 44° SE 22:52:02 67° ENE 22:57:36 10° NNW
Helios 1B rocket 2.8 22:50:54 10° NNE 22:54:20 47° ENE 22:54:20 47° ENE
BREEZE-M DEB (TANK) 3.9 22:54:48 10° WNW 22:56:10 28° NW 22:56:10 28° NW
Cosmos 1934 Rocket 4.5 22:56:50 37° E 22:57:22 37° E 23:02:51 10° NNE
BREEZE-M DEB (TANK) 2.6 22:53:17 10° WNW 22:57:51 47° N 22:57:53 47° N
USA 81 4.2 22:53:06 10° N 22:58:22 68° W 23:00:34 35° SSW
SPOT 1/Viking Rocket 3.5 22:58:17 52° SSE 22:59:37 84° ENE 23:04:53 10° NNW
CARTOSAT-1 3.8 23:03:12 52° ENE 23:03:12 52° ENE 23:07:18 10° N
Cosmos 1733 Rocket 3.9 22:59:19 10° N 23:03:02 37° ENE 23:03:02 37° ENE
H-2A R/B 2.8 23:05:58 29° SSW 23:08:04 45° W 23:12:52 10° NNW
Cosmos 2237 Rocket 3.2 23:03:21 10° SW 23:08:45 46° WNW 23:14:11 10° NNE
Cosmos 2219 Rocket 4.3 23:04:12 10° WSW 23:08:58 27° NW 23:13:43 10° N
Cosmos 407 Rocket 3.9 23:04:08 10° NNW 23:09:08 54° WSW 23:10:28 42° SSW
Helios 1A 3.4 23:09:18 51° SW 23:09:49 55° W 23:13:58 10° NNW
ERS-1 Rocket 3.8 23:10:14 31° SSW 23:12:05 45° W 23:16:55 10° NNW
CZ-2C R/B 4.1 23:09:03 10° NE 23:12:04 22° ENE 23:12:04 22° ENE
Cosmos 1000 Rocket 4.4 23:07:34 10° N 23:13:48 86° E 23:15:31 51° SSE
Cosmos 1441 Rocket 3.7 23:14:38 56° WNW 23:14:38 56° WNW 23:18:12 10° N
Cosmos 614 Rocket 3.8 23:09:25 10° NNW 23:14:42 90° SW 23:15:22 69° SSE
Cosmos 2278 Rocket 3.9 23:10:30 10° NW 23:15:00 25° WSW 23:17:58 17° SW
SL-8 R/B 3.6 23:14:13 10° WSW 23:18:38 75° SW 23:18:38 75° SW
Cosmos 1821 Rocket 3.9 23:19:13 52° S 23:20:54 78° E 23:27:13 10° N
USA 234 3.5 23:21:08 35° E 23:23:54 61° NNE 23:30:20 10° NW
RESURS DK-1 4.2 23:21:02 10° N 23:24:06 23° NE 23:24:06 23° NE
ATLAS 5 CENTAUR R/B 3.4 23:19:11 10° NNW 23:24:30 37° NE 23:26:31 30° ENE
Meteor 1-20 Rocket 4.4 23:20:49 10° N 23:26:09 51° ENE 23:26:16 51° E
Cosmos 676 Rocket 4.2 23:22:36 10° NNW 23:27:48 60° WSW 23:28:25 56° SW
Cosmos 2123 Rocket 3.9 23:28:40 10° N 23:35:01 74° E 23:35:52 65° SE
Cosmos 1437 Rocket 3.7 23:33:08 10° NNW 23:35:51 44° NNW 23:35:51 44° NNW
IGS 5A 4.0 23:39:05 56° NW 23:39:05 56° NW 23:42:35 10° NNW
BREEZE M DEB (TANK) 3.8 23:26:37 10° W 23:40:10 69° NNW 23:42:11 35° ENE
Cosmos 1452 Rocket 3.4 23:41:13 87° W 23:41:15 87° WNW 23:46:32 10° NNE
Cosmos 405 Rocket 4.3 23:42:40 30° WNW 23:42:53 30° WNW 23:46:25 10° N
ATLAS CENTAUR R/B 4.3 23:45:57 10° WNW 23:48:15 15° NNW 23:50:40 10° N
